Content
SEND FEEDBACK

Daily
Averages
Monthly
Summary
United States of America

CANYON CITY, OREGON


Home > North America > United States > Oregon
Elevation: 3123 feet     Latitude: 44 25N     Longitude: 118 57W

WEATHER
 
SELECT A DAY
Number of Records: 183,309;   Date Range: 11/29/06 - 9/21/14
 
SHARE

PRINT THIS DATA

[ ← Previous Day ]
WEATHER ALMANAC - JANUARY 23, 2013
[ Next Day → ]
[ °C ]   °F
Weather ElementAverageHighLow
Temperature41.9 °F51.8 °F (1:55 pm)30.2 °F (12:35 am)
Dewpoint21.4 °F33.8 °F (9:55 pm)14 °F (3:35 am)
Humidity46 %76 % (9:55 pm)28 % (2:15 pm)
Barometer30.00 in30.08 in (12:35 am)29.92 in (2:15 pm)
Wind Speed10.7 mph27.6 mph (9:55 am)
Wind Gust34.5 mph (9:55 am)
Weather ElementAverage
Visibility10 mi
Wind DirectionSSE (142 °)

Weather ElementTotal
Precipitation---
Heating Degree Days24 (Base 65)
Averaged from 70 records on January 23, 2013
WEATHER CONDITIONS BREAKOUT
WIND DIRECTION BREAKOUT
WEATHER BY HOUR - JANUARY 23, 2013
[ °C ]   °F
Local TimeTemperatureDewpointHumidityBarometerVisibilityWind DirectionWind SpeedGust SpeedPrecipitationEventsConditions
12:35 AM30.2 °F17.6 °F60 %30.08 in10.0 miEast (90°)9.2 mphClear
12:55 AM32.0 °F17.6 °F55 %30.07 in10.0 miEast (90°)8.1 mphClear
1:15 AM32.0 °F17.6 °F55 %30.07 in10.0 miEast (90°)9.2 mphClear
1:35 AM32.0 °F17.6 °F55 %30.06 in10.0 miEast (90°)9.2 mphClear
1:55 AM32.0 °F15.8 °F51 %30.07 in10.0 miEast (90°)9.2 mphClear
2:15 AM33.8 °F15.8 °F48 %30.06 in10.0 miESE (110°)10.4 mphClear
2:35 AM33.8 °F15.8 °F48 %30.06 in10.0 miEast (80°)10.4 mphClear
2:55 AM32.0 °F17.6 °F55 %30.05 in10.0 miENE (70°)11.5 mphClear
3:15 AM33.8 °F15.8 °F48 %30.05 in10.0 miEast (80°)8.1 mphClear
3:35 AM32.0 °F14.0 °F48 %30.05 in10.0 miEast (80°)11.5 mph17.3 mphClear
3:55 AM32.0 °F15.8 °F51 %30.04 in10.0 miENE (60°)6.9 mph18.4 mphClear
4:15 AM33.8 °F14.0 °F44 %30.04 in10.0 miEast (80°)10.4 mph21.9 mphClear
4:35 AM32.0 °F14.0 °F48 %30.03 in10.0 miENE (60°)10.4 mphClear
4:55 AM32.0 °F14.0 °F48 %30.02 in10.0 miNE (50°)6.9 mphClear
5:15 AM32.0 °F14.0 °F48 %30.02 in10.0 miNE (50°)6.9 mphClear
5:35 AM32.0 °F15.8 °F51 %30.01 in10.0 miENE (70°)6.9 mphClear
5:55 AM33.8 °F14.0 °F44 %30.01 in10.0 miENE (70°)6.9 mphClear
6:15 AM35.6 °F14.0 °F41 %30.01 in10.0 miESE (110°)6.9 mphClear
6:35 AM33.8 °F14.0 °F44 %30.01 in10.0 miESE (120°)6.9 mph16.1 mphClear
7:15 AM35.6 °F14.0 °F41 %30.01 in10.0 miENE (70°)6.9 mphClear
7:35 AM35.6 °F14.0 °F41 %30.01 in10.0 miNNE (30°)6.9 mphClear
7:55 AM37.4 °F14.0 °F38 %30.01 in10.0 miEast (90°)4.6 mphClear
8:15 AM35.6 °F14.0 °F41 %30.01 in10.0 miENE (60°)5.8 mphClear
8:35 AM37.4 °F14.0 °F38 %30.02 in10.0 miENE (60°)3.5 mphClear
8:55 AM37.4 °F14.0 °F38 %30.02 in10.0 miENE (70°)6.9 mphClear
9:15 AM37.4 °F15.8 °F41 %30.03 in10.0 miEast (80°)4.6 mphMostly Cloudy
9:35 AM46.4 °F19.4 °F34 %30.05 in10.0 miSouth (190°)21.9 mph32.2 mphOvercast
9:55 AM41.0 °F28.4 °F61 %30.01 in7.0 miSouth (170°)27.6 mph34.5 mphRainRain
10:15 AM46.4 °F32.0 °F57 %30.00 in10.0 miSouth (180°)12.7 mph25.3 mphOvercast
10:35 AM42.8 °F28.4 °F57 %30.01 in10.0 miCalmOvercast
10:55 AM42.8 °F28.4 °F57 %30.01 in10.0 miESE (110°)4.6 mph9.2 mphOvercast
11:15 AM48.2 °F30.2 °F50 %29.99 in10.0 miSE (140°)12.7 mph26.5 mphLight Drizzle
11:35 AM50.0 °F30.2 °F47 %29.97 in10.0 miSE (130°)5.8 mphOvercast
11:55 AM46.4 °F30.2 °F53 %29.96 in10.0 miNE (40°)11.5 mphOvercast
12:15 PM46.4 °F32.0 °F57 %29.95 in10.0 miENE (70°)6.9 mphOvercast
12:35 PM46.4 °F32.0 °F57 %29.94 in10.0 miEast (100°)5.8 mphOvercast
12:55 PM46.4 °F32.0 °F57 %29.94 in10.0 miNE (40°)4.6 mph17.3 mphOvercast
1:15 PM50.0 °F26.6 °F40 %29.94 in10.0 miSSW (210°)3.5 mphOvercast
1:35 PM50.0 °F26.6 °F40 %29.93 in10.0 miSE (130°)4.6 mphOvercast
1:55 PM51.8 °F21.2 °F30 %29.93 in10.0 miSouth (180°)9.2 mph16.1 mphOvercast
2:15 PM51.8 °F19.4 °F28 %29.92 in10.0 miSSE (150°)13.8 mph26.5 mphOvercast
2:35 PM50.0 °F17.6 °F28 %29.92 in10.0 miSouth (170°)16.1 mph21.9 mphOvercast
2:55 PM50.0 °F17.6 °F28 %29.93 in10.0 miSouth (190°)4.6 mph16.1 mphOvercast
3:15 PM50.0 °F17.6 °F28 %29.92 in10.0 miSouth (170°)10.4 mphOvercast
3:35 PM50.0 °F17.6 °F28 %29.94 in10.0 miSouth (170°)13.8 mph24.2 mphOvercast
3:55 PM50.0 °F17.6 °F28 %29.93 in10.0 miSSE (160°)20.7 mph28.8 mphOvercast
4:15 PM50.0 °F17.6 °F28 %29.93 in10.0 miSouth (170°)19.6 mph28.8 mphOvercast
4:35 PM50.0 °F17.6 °F28 %29.94 in10.0 miSouth (190°)13.8 mph25.3 mphOvercast
4:55 PM50.0 °F17.6 °F28 %29.93 in10.0 miSouth (170°)18.4 mph33.4 mphOvercast
5:15 PM50.0 °F17.6 °F28 %29.94 in10.0 miSouth (180°)15.0 mph27.6 mphOvercast
5:35 PM50.0 °F17.6 °F28 %29.93 in10.0 miSSW (200°)16.1 mph19.6 mphOvercast
5:55 PM48.2 °F17.6 °F30 %29.94 in10.0 miWest (270°)8.1 mph23.0 mphOvercast
6:15 PM46.4 °F19.4 °F34 %29.95 in10.0 miWest (270°)8.1 mphOvercast
6:35 PM46.4 °F19.4 °F34 %29.95 in10.0 miWSW (250°)10.4 mphOvercast
6:55 PM46.4 °F19.4 °F34 %29.96 in10.0 miWest (270°)12.7 mphOvercast
7:15 PM48.2 °F19.4 °F32 %29.96 in10.0 miWest (260°)10.4 mph19.6 mphOvercast
7:35 PM48.2 °F19.4 °F32 %29.96 in10.0 miSW (230°)12.7 mph19.6 mphOvercast
7:55 PM48.2 °F19.4 °F32 %29.96 in10.0 miSW (220°)13.8 mph21.9 mphOvercast
8:15 PM48.2 °F21.2 °F34 %29.97 in10.0 miWSW (240°)18.4 mph28.8 mphOvercast
8:35 PM46.4 °F23.0 °F40 %30.01 in10.0 miSSW (210°)10.4 mph24.2 mphOvercast
8:55 PM46.4 °F28.4 °F50 %30.03 in10.0 miSW (230°)23.0 mph28.8 mphRainRain
9:15 PM41.0 °F32.0 °F70 %30.02 in10.0 miSSW (200°)18.4 mphLight Drizzle
9:35 PM41.0 °F32.0 °F70 %30.03 in10.0 miSouth (190°)18.4 mph24.2 mphOvercast
9:55 PM41.0 °F33.8 °F76 %30.04 in10.0 miSouth (180°)20.7 mph28.8 mphOvercast
10:15 PM41.0 °F33.8 °F76 %30.04 in10.0 miSSW (200°)13.8 mph21.9 mphOvercast
10:35 PM42.8 °F33.8 °F70 %30.05 in10.0 miSSW (200°)15.0 mph21.9 mphOvercast
10:55 PM42.8 °F33.8 °F70 %30.06 in10.0 miWSW (240°)12.7 mphOvercast
11:15 PM42.8 °F33.8 °F70 %30.07 in10.0 miWSW (240°)5.8 mphOvercast
11:35 PM42.8 °F33.8 °F70 %30.07 in10.0 miSSW (210°)9.2 mphOvercast
11:55 PM42.8 °F33.8 °F70 %30.07 in10.0 miSW (220°)8.1 mphOvercast
Hourly data recorded from KGCD, located miles away from Canyon City, Oregon







STORIES FROM OUR PARTNERS